Date String (YYYY-MM-DD hh:mm:ss) UTC,Instrument flags,absolute air pressure of the measurement (hPa),sample flow rate (lpm),inlet stack bypass flow (lpm),air temperature of the measurement (°C),ambient temperature measured by the external sensor (°C),aerosol sample conditioner tube jacket temperature (°C),OPC LED temperature (°C),internal box temperature (°C),relative humidity of the measurement (%),span deviation,mass concentration of particles derived from Lorenz-Mie calculation of OPC scattering (μg/m³),mass concentration of particles derived from Lorenz-Mie calculation of OPC scattering (μg/m³),mass concentration of particles derived from Lorenz-Mie calculation of OPC scattering (μg/m³)
DateTimeUTC,F1_M11,P_M11,Q1_M11,Q2_M11,T1_M11,T2_M11,T3_M11,T4_M11,T5_M11,U1_M11,ZSPAN_M11,X0_M11,X2_M11,X1_M11
2024-05-19 08:00:00,SystemResetWarning,0826.5,5.01,000.00,024.6,023.5,000.0,033.0,026.3,023.2,0000.0,0003.90,0002.48,0001.75
2024-05-19 08:01:00,SystemResetWarning,0826.6,5.01,000.00,024.7,023.7,000.0,033.0,026.4,023.3,0000.0,0003.84,0002.48,0001.75
2024-05-19 08:02:00,SystemResetWarning,0826.6,4.98,000.00,024.7,023.8,000.0,033.0,026.5,023.4,0000.0,0003.83,0002.48,0001.75
2024-05-19 08:03:00,SystemResetWarning,0826.6,4.99,000.00,024.7,023.9,000.0,033.0,026.6,023.3,0000.0,0003.87,0002.49,0001.76
2024-05-19 08:04:00,SystemResetWarning,0826.6,5.00,000.00,024.8,024.1,000.0,033.0,026.6,023.1,0000.0,0003.88,0002.49,0001.77
2024-05-19 08:05:00,SystemResetWarning,0826.6,5.00,000.00,024.8,024.2,000.0,033.0,026.7,023.0,0000.0,0003.79,0002.45,0001.78
2024-05-19 08:06:00,SystemResetWarning,0826.6,5.01,000.00,024.9,024.2,000.0,033.0,026.7,023.1,0000.0,0003.61,0002.38,0001.77
2024-05-19 08:07:00,SystemResetWarning,0826.7,5.00,000.00,024.9,024.3,000.0,033.0,026.8,022.9,0000.0,0003.59,0002.37,0001.78
2024-05-19 08:08:00,SystemResetWarning,0826.6,5.01,000.00,025.0,024.4,000.0,033.0,026.8,022.9,0000.0,0003.70,0002.40,0001.79
2024-05-19 08:09:00,SystemResetWarning,0826.6,4.99,000.00,025.0,024.5,000.0,033.1,026.9,022.7,0000.0,0003.89,0002.35,0001.79
2024-05-19 08:10:00,SystemResetWarning,0826.6,4.99,000.00,025.1,024.5,000.0,033.1,026.9,022.7,0000.0,0004.95,0002.35,0001.79
2024-05-19 08:11:00,SystemResetWarning,0826.6,5.00,000.00,025.1,024.6,000.0,033.1,027.0,022.6,0000.0,0006.01,0002.36,0001.78
2024-05-19 08:12:00,SystemResetWarning,0826.6,5.00,000.00,025.1,024.6,000.0,033.2,027.0,022.4,0000.0,0006.79,0002.37,0001.79
2024-05-19 08:13:00,SystemResetWarning,0826.6,5.00,000.00,025.2,024.7,000.0,033.2,027.1,022.3,0000.0,0006.70,0002.34,0001.79
2024-05-19 08:14:00,SystemResetWarning,0826.6,5.00,000.00,025.2,024.7,000.0,033.2,027.1,022.4,0000.0,0006.64,0002.32,0001.79
2024-05-19 08:15:00,SystemResetWarning,0826.6,5.01,000.00,025.3,024.8,000.0,033.3,027.1,022.3,0000.0,0006.69,0002.34,0001.78
2024-05-19 08:16:00,SystemResetWarning,0826.6,4.99,000.00,025.3,024.8,000.0,033.3,027.2,022.3,0000.0,0006.72,0002.38,0001.78
2024-05-19 08:17:00,SystemResetWarning,0826.6,5.00,000.00,025.3,024.8,000.0,033.3,027.2,022.3,0000.0,0007.43,0002.42,0001.77
2024-05-19 08:18:00,SystemResetWarning,0826.6,5.00,000.00,025.4,024.9,000.0,033.3,027.2,022.3,0000.0,0007.77,0002.37,0001.76
2024-05-19 08:19:00,SystemResetWarning,0826.6,4.99,000.00,025.4,024.8,000.0,033.4,027.2,022.5,0000.0,0007.74,0002.34,0001.74
2024-05-19 08:20:00,SystemResetWarning,0826.6,5.00,000.00,025.2,023.2,000.0,033.5,026.4,022.5,0000.0,0007.59,0002.36,0001.73
2024-05-19 08:21:00,SystemResetWarning,0826.6,5.01,000.00,024.8,021.8,000.0,033.5,025.6,023.1,0000.0,0006.80,0002.39,0001.72
2024-05-19 08:22:00,SystemResetWarning,0826.5,5.02,000.00,024.6,021.9,000.0,033.4,025.5,023.2,0000.0,0006.00,0002.42,0001.72
2024-05-19 08:23:00,SystemResetWarning,0826.6,4.99,000.00,024.6,022.3,000.0,033.3,025.6,023.3,0000.0,0005.19,0002.41,0001.71
2024-05-19 08:24:00,SystemResetWarning,0826.6,5.00,000.00,024.6,022.6,000.0,033.2,026.0,023.3,0000.0,0005.32,0002.42,0001.70
2024-05-19 08:25:00,SystemResetWarning,0826.6,5.01,000.00,024.6,022.9,000.0,033.1,026.1,023.2,0000.0,0005.36,0002.44,0001.70
2024-05-19 08:26:00,SystemResetWarning,0826.6,5.01,000.00,024.6,023.2,000.0,033.0,026.3,023.3,0000.0,0005.33,0002.43,0001.70
2024-05-19 08:27:00,SystemResetWarning,0826.6,4.99,000.00,024.7,023.4,000.0,033.0,026.4,023.2,0000.0,0005.27,0002.38,0001.70
2024-05-19 08:28:00,SystemResetWarning,0826.6,5.00,000.00,024.7,023.6,000.0,033.0,026.4,023.3,0000.0,0004.29,0002.37,0001.71
2024-05-19 08:29:00,SystemResetWarning,0826.5,4.99,000.00,024.7,023.8,000.0,033.0,026.5,023.1,0000.0,0003.81,0002.40,0001.72
2024-05-19 08:30:00,SystemResetWarning,0826.5,4.99,000.00,024.8,023.9,000.0,033.0,026.6,023.3,0000.0,0003.84,0002.42,0001.73
2024-05-19 08:31:00,SystemResetWarning,0826.6,5.00,000.00,024.8,024.0,000.0,033.0,026.6,023.2,0000.0,0003.91,0002.41,0001.73
2024-05-19 08:32:00,SystemResetWarning,0826.5,5.01,000.00,024.9,024.2,000.0,033.0,026.7,023.5,0000.0,0003.87,0002.43,0001.74
2024-05-19 08:33:00,SystemResetWarning,0826.6,5.01,000.00,024.9,024.2,000.0,033.0,026.7,023.5,0000.0,0003.85,0002.46,0001.76
2024-05-19 08:34:00,SystemResetWarning,0826.6,4.99,000.00,025.0,024.3,000.0,033.0,026.8,023.6,0000.0,0003.84,0002.47,0001.76
2024-05-19 08:35:00,SystemResetWarning,0826.6,5.00,000.00,025.0,024.4,000.0,033.1,026.8,023.4,0000.0,0003.81,0002.49,0001.77
2024-05-19 08:36:00,SystemResetWarning,0826.6,5.01,000.00,025.0,024.5,000.0,033.1,026.9,023.2,0000.0,0003.85,0002.52,0001.77
2024-05-19 08:37:00,SystemResetWarning,0826.6,5.01,000.00,025.1,024.5,000.0,033.1,026.9,023.1,0000.0,0003.91,0002.53,0001.77
2024-05-19 08:38:00,SystemResetWarning,0826.6,5.00,000.00,025.1,024.6,000.0,033.1,026.9,023.1,0000.0,0003.95,0002.56,0001.77
2024-05-19 08:39:00,SystemResetWarning,0826.6,4.99,000.00,025.2,024.6,000.0,033.2,027.0,022.8,0000.0,0003.97,0002.55,0001.77
2024-05-19 08:40:00,SystemResetWarning,0826.6,5.01,000.00,025.2,024.7,000.0,033.2,027.0,022.7,0000.0,0003.96,0002.53,0001.77
2024-05-19 08:41:00,SystemResetWarning,0826.6,5.00,000.00,025.2,024.7,000.0,033.2,027.1,022.6,0000.0,0003.89,0002.50,0001.76
2024-05-19 08:42:00,SystemResetWarning,0826.6,5.01,000.00,025.3,024.7,000.0,033.2,027.1,022.3,0000.0,0003.82,0002.49,0001.76
2024-05-19 08:43:00,SystemResetWarning,0826.6,5.01,000.00,025.3,024.8,000.0,033.3,027.1,022.1,0000.0,0003.83,0002.49,0001.77
2024-05-19 08:44:00,SystemResetWarning,0826.6,5.00,000.00,025.3,024.8,000.0,033.3,027.2,022.0,0000.0,0004.11,0002.40,0001.76
2024-05-19 08:45:00,SystemResetWarning,0826.6,5.00,000.00,025.4,024.8,000.0,033.3,027.2,021.8,0000.0,0005.29,0002.47,0001.76
2024-05-19 08:46:00,SystemResetWarning,0826.6,5.00,000.00,025.4,024.8,000.0,033.4,027.2,021.8,0000.0,0005.44,0002.48,0001.77
2024-05-19 08:47:00,SystemResetWarning,0826.6,5.00,000.00,025.4,024.9,000.0,033.4,027.2,021.7,0000.0,0005.65,0002.48,0001.78
2024-05-19 08:48:00,SystemResetWarning,0826.6,5.00,000.00,025.4,024.8,000.0,033.4,027.1,021.7,0000.0,0005.54,0002.44,0001.78
2024-05-19 08:49:00,SystemResetWarning,0826.4,4.99,000.00,025.2,022.8,000.0,033.5,026.2,021.9,0000.0,0005.69,0002.50,0001.79
2024-05-19 08:50:00,SystemResetWarning,0826.4,5.02,000.00,024.8,021.8,000.0,033.5,025.5,022.4,0000.0,0005.64,0002.50,0001.79
2024-05-19 08:51:00,SystemResetWarning,0826.4,4.99,000.00,024.6,022.0,000.0,033.4,025.5,022.8,0000.0,0005.99,0002.54,0001.79
2024-05-19 08:52:00,SystemResetWarning,0826.4,4.98,000.00,024.6,022.3,000.0,033.3,025.6,022.9,0000.0,0006.09,0002.55,0001.80
2024-05-19 08:53:00,SystemResetWarning,0826.4,5.01,000.00,024.6,022.7,000.0,033.2,025.9,022.9,0000.0,0006.01,0002.51,0001.80
2024-05-19 08:54:00,SystemResetWarning,0826.6,5.01,000.00,024.6,023.0,000.0,033.1,026.1,023.1,0000.0,0005.89,0002.45,0001.79
2024-05-19 08:55:00,SystemResetWarning,0826.6,5.00,000.00,024.6,023.2,000.0,033.0,026.3,023.1,0000.0,0005.54,0002.49,0001.79
2024-05-19 08:56:00,SystemResetWarning,0826.6,5.00,000.00,024.7,023.5,000.0,033.0,026.3,023.0,0000.0,0004.43,0002.43,0001.78
2024-05-19 08:57:00,SystemResetWarning,0826.6,5.00,000.00,024.7,023.6,000.0,033.0,026.4,022.9,0000.0,0004.23,0002.40,0001.78
2024-05-19 08:58:00,SystemResetWarning,0826.6,5.00,000.00,024.7,023.8,000.0,033.0,026.5,022.8,0000.0,0004.09,0002.40,0001.79
2024-05-19 08:59:00,SystemResetWarning,0826.6,4.99,000.00,024.8,023.9,000.0,033.0,026.6,022.8,0000.0,0004.15,0002.42,0001.80
